Snowfall_Accumulation
0.0 0.0 0.0 0.0 0.0 0.0 0.0 0.0 0.0 0.0 0.0 0.0 0.0 0.0 0.0 0.0 0.0 0.0 0.0 0.0 0.0 0.0 0.0 0.0 0.0 0.0 0.0 0.0 0.0 0.0 0.0 0.0 0.0 0.0 0.0 0.0 0.0 0.0 0.0 0.0 0.0 0.0 0.0 0.0 0.0
0.0 0.0 0.0 0.0 0.0 0.0 0.0 0.0 0.0 0.0 0.0 0.0 0.0 0.0 0.0 0.0 0.0 0.0 0.0 0.0 0.0 0.0 0.0 0.0 0.0 0.0 0.0 0.0 0.0 0.0 0.0 0.0 0.0 0.0 0.0 0.0 0.0 0.0 0.0 0.0 0.0 0.0 0.0 0.0 0.0
0.0 0.0 0.0 0.0 0.0 0.0 0.0 0.0 0.0 0.0 0.0 0.0 0.0 0.0 0.0 0.0 0.0 0.0 0.0 0.0 0.0 0.0 0.0 0.0 0.0 0.0 0.0 0.0 0.0 0.0 0.0 0.0 0.0 0.0 0.0 0.0 0.0 0.0 0.0 0.0 0.0 0.0 0.0 0.0 0.0
0.0 0.0 0.0 0.0 0.0 0.0 0.0 0.0 0.0 0.0 0.0 0.0 0.0 0.0 0.0 0.0 0.0 0.0 0.0 0.0 0.0 0.0 0.0 0.0 0.0 0.0 0.0 0.0 0.0 0.0 0.0 0.0 0.0 0.0 0.0 0.0 0.0 0.0 0.0 0.0 0.0 0.0 0.0 0.0 0.0
0.0 0.0 0.0 0.0 0.0 0.0 0.0 0.0 0.0 0.0 0.0 0.0 0.0 0.0 0.0 0.0 0.0 0.0 0.0 0.0 0.0 0.0 0.0 0.0 0.0 0.0 0.0 0.0 0.0 0.0 0.0 0.0 0.0 0.0 0.0 0.0 0.0 0.0 0.0 0.0 0.0 0.0 0.0 0.0 0.0
0.0 0.0 0.0 0.0 0.0 0.0 0.0 0.0 0.0 0.0 0.0 0.0 0.0 0.0 0.0 0.1 0.0 0.0 0.0 0.0 0.0 0.0 0.0 0.0 0.0 0.0 0.0 0.0 0.0 0.0 0.0 0.0 0.0 0.0 0.0 0.0 0.0 0.0 0.0 0.0 0.0 0.0 0.0 0.0 0.0
0.0 0.0 0.0 0.0 0.0 0.0 0.0 0.0 0.0 0.0 0.0 0.0 0.0 0.0 0.0 0.0 0.0 0.0 0.0 0.0 0.0 0.0 0.0 0.0 0.0 0.0 0.0 0.0 0.0 0.0 0.0 0.0 0.0 0.0 0.0 0.0 0.0 0.0 0.0 0.0 0.0 0.0 0.0 0.0 0.0
0.0 0.0 0.0 0.0 0.0 0.0 0.0 0.0 0.0 0.0 0.0 0.0 0.0 0.0 0.0 0.0 0.0 0.0 0.0 0.0 0.0 0.0 0.0 0.0 0.0 0.0 0.0 0.0 0.0 0.0 0.0 0.8 0.0 0.0 0.0 0.0 0.0 0.0 0.0 0.0 0.0 0.0 0.0 0.0 0.0
0.0 0.0 0.0 0.0 0.0 0.0 0.0 0.0 0.0 0.0 0.0 0.0 0.0 0.0 0.0 0.0 0.0 0.0 0.0 0.0 0.0 0.0 0.0 0.0 0.0 0.0 0.0 1.4 0.4 0.3 2.3 0.2 0.0 0.0 0.0 0.0 0.0 0.0 0.0 0.0 0.0 0.0 0.0 0.0 0.0
0.0 0.0 0.0 0.0 0.0 0.0 0.0 0.0 0.0 0.0 0.0 0.0 0.0 0.0 0.0 0.0 0.0 0.0 0.0 0.0 0.0 0.0 0.0 0.0 0.4 1.0 0.3 5.7 11.0 1.7 0.8 0.1 0.0 0.0 0.0 0.0 0.0 0.0 0.0 0.0 0.0 0.0 0.0 0.0 0.0
0.0 0.0 0.0 0.0 0.0 0.0 0.0 0.0 0.0 0.0 0.0 0.0 0.0 0.0 0.0 0.0 0.0 0.0 0.0 0.0 0.0 0.0 2.7 0.5 2.8 4.9 1.7 0.0 1.8 1.8 3.2 1.5 0.0 0.0 0.0 0.0 0.0 0.0 0.0 0.0 0.0 0.0 0.0 0.0 0.0
0.0 0.0 0.0 0.0 0.0 0.0 0.0 0.0 0.0 0.0 0.4 0.0 0.0 0.0 0.0 0.0 0.0 0.0 0.0 0.0 0.0 2.9 0.0 3.6 4.8 0.5 0.0 0.6 3.3 2.2 2.4 1.5 0.0 0.0 0.0 0.0 0.0 0.0 0.0 0.0 0.0 0.0 0.0 0.0 0.0
0.0 0.0 0.0 0.0 0.0 0.0 0.0 0.0 0.0 0.0 2.6 0.0 0.0 0.0 0.0 0.0 0.0 0.0 0.0 0.0 0.0 1.1 5.1 3.9 0.1 0.3 0.6 1.1 6.8 3.8 3.4 2.2 4.0 0.4 0.1 0.4 0.6 0.0 0.0 0.0 0.0 0.0 0.0 0.0 0.0
0.0 0.0 0.0 0.0 0.0 0.0 0.0 0.0 0.0 0.0 11.0 0.5 0.4 0.0 0.0 0.0 0.3 0.0 0.0 0.0 0.0 0.9 1.9 2.1 0.0 0.1 0.8 1.5 2.0 12.2 0.3 0.5 3.0 5.8 6.6 0.2 6.0 0.0 0.0 0.0 0.0 0.0 0.0 0.0 0.0
0.0 0.0 0.0 0.0 0.0 0.0 0.0 0.0 0.0 0.0 40.3 2.8 0.9 0.0 0.0 1.1 0.5 0.0 0.0 0.0 0.0 0.2 2.3 3.9 0.1 0.2 1.2 0.2 0.3 4.9 1.0 1.9 5.5 8.1 9.6 1.2 8.7 0.0 0.0 0.0 0.4 0.3 0.1 0.1 0.1
0.0 0.0 0.0 0.0 0.0 0.0 0.0 0.0 0.0 20.0 26.8 9.7 1.0 2.6 3.9 1.5 0.1 0.0 0.0 0.0 0.0 0.0 0.0 0.0 0.0 0.0 1.0 0.0 0.0 0.2 3.3 2.1 4.9 8.5 26.9 1.3 4.0 3.1 1.2 2.7 2.0 1.1 0.7 0.5 0.2
0.0 0.0 0.0 0.0 0.0 0.0 0.0 0.0 27.7 23.2 2.2 10.4 7.4 2.0 5.3 3.4 1.1 0.4 4.0 4.9 4.8 11.3 9.2 3.5 2.3 0.0 0.3 2.3 0.5 3.8 20.9 47.7 44.8 40.5 13.8 1.9 5.6 8.3 5.7 3.6 2.5 1.7 1.1 0.9 0.7
0.0 0.0 0.0 0.0 0.0 0.0 0.0 6.4 29.5 1.7 7.0 3.2 4.7 4.1 6.7 0.7 1.8 2.9 3.8 4.3 2.3 5.7 6.0 11.0 15.2 7.1 1.7 3.8 7.2 11.4 20.9 34.8 29.6 14.9 9.0 3.6 15.6 15.2 4.8 3.4 2.6 2.1 2.0 1.1 1.1
0.0 0.0 0.0 0.0 0.0 0.0 0.0 31.5 7.6 6.9 3.8 8.3 6.2 15.6 7.5 1.4 2.4 11.1 6.0 6.2 6.1 4.8 11.4 6.1 8.2 1.3 0.7 0.9 6.9 10.2 22.5 5.2 20.5 6.6 10.0 9.5 10.3 8.4 3.2 3.3 2.6 2.7 2.3 2.1 2.1
0.0 0.0 0.0 0.0 0.0 0.0 2.5 11.2 2.2 1.5 3.2 6.2 11.3 3.1 12.2 6.7 9.6 8.4 10.2 5.1 3.7 2.2 1.9 8.6 10.0 1.6 0.3 0.3 1.3 6.4 3.8 19.4 29.9 34.1 22.3 8.8 11.2 23.7 12.5 9.6 3.8 3.0 3.6 2.9 2.8
0.0 0.0 0.0 0.0 0.0 0.0 22.4 4.9 1.0 0.5 1.7 3.3 3.5 3.3 1.4 5.7 5.2 8.2 11.9 10.0 2.3 1.4 1.7 4.4 11.3 5.6 1.2 8.3 10.6 9.5 18.8 15.4 13.7 17.3 29.0 20.2 28.9 19.5 19.8 12.9 9.5 5.8 4.5 4.5 4.1
0.0 4.2 0.0 0.0 0.6 6.1 9.1 2.3 1.0 0.0 0.0 0.5 0.2 0.8 0.9 0.5 7.6 8.6 10.6 8.7 0.8 0.9 5.5 5.7 10.9 10.4 3.7 3.7 6.3 8.4 10.6 10.2 32.7 20.2 19.3 23.0 33.6 13.2 14.6 8.3 5.8 6.1 4.9 4.2 4.5
0.0 1.6 0.0 0.0 16.2 6.5 0.2 0.1 0.0 1.2 0.7 0.0 3.2 1.0 0.1 2.0 7.5 3.0 1.8 1.2 0.1 0.8 5.4 5.7 13.2 12.4 7.8 6.1 6.6 10.5 9.3 7.6 6.1 16.4 28.1 32.8 41.0 6.1 4.7 6.0 3.6 5.3 5.6 4.6 3.9
0.0 20.6 7.1 5.1 3.3 1.0 0.9 2.5 1.4 0.0 0.2 0.3 1.9 1.1 2.5 3.2 1.6 4.1 1.4 1.0 0.0 0.0 0.7 3.6 10.0 11.9 11.7 12.4 12.6 13.1 9.1 7.1 12.0 29.1 22.4 30.1 21.8 13.5 10.1 14.7 5.7 5.1 4.3 5.4 4.8
0.7 3.4 0.0 12.2 3.7 0.8 3.1 5.2 3.9 3.3 0.6 0.8 4.8 2.9 4.2 8.2 4.1 3.1 1.0 1.9 2.2 1.7 2.1 8.1 15.6 1.5 1.0 1.2 8.3 11.7 12.7 11.8 20.7 18.8 31.4 27.2 21.0 18.9 19.1 20.0 13.0 9.2 5.7 4.3 4.7
2.3 3.1 6.5 4.3 1.6 1.8 6.7 9.0 4.2 2.2 4.8 4.2 4.7 0.4 4.1 10.6 7.1 7.3 3.8 3.9 4.7 3.2 5.3 5.6 13.0 4.6 6.2 2.1 6.9 12.0 9.3 12.4 15.8 19.6 22.7 20.9 25.7 19.2 13.7 9.7 8.1 8.3 7.1 7.1 7.1
1.4 0.9 3.4 5.1 8.9 8.5 6.9 1.9 2.3 3.0 9.0 6.1 4.4 7.2 6.3 3.4 6.4 6.8 6.6 7.0 9.1 8.8 7.5 9.3 12.6 15.0 19.3 3.0 8.7 18.6 11.9 7.3 14.1 16.7 19.4 24.0 24.9 17.9 18.1 13.5 14.0 11.9 11.0 11.9 10.5